Flag for Cuba Weather past 2 weeks in Santiago de Cuba, Cuba

73 °F

Passing clouds.

Feels Like: 73 °F
Forecast: 73 / 86 °F
Wind: 5 mph from North

Location: Santiago De Cuba - Oriente

Current Time: Dec 1, 2015 at 5:15:00 AM

Latest Report: Dec 1, 2015 at 4:50 AM

Visibility: 6 mi

Pressure: 29.83 "Hg

Humidity: 83%

Dew point: 68 °F

Location of Santiago de CubaLocation

Historic Weather in Santiago de Cuba — Graph


Santiago de Cuba temperature yesterday

Maximum temperature yesterday: 86 °F (at 11:50 AM)
Minimum temperature yesterday: 72 °F (at 1:51 AM)
Average temperature yesterday: 78 °F

Past Weeks' High & Low Weather Summary

High88 °F (Nov 16, 12:50 PM)100% (Nov 22, 10:51 PM)30.04 "Hg (Nov 22, 10:51 PM)
Low70 °F (Nov 22, 2:51 AM)46% (Nov 21, 10:50 AM)29.83 "Hg (Nov 20, 2:50 PM)
Average78 °F73%29.92 "Hg
* Reported Nov 16 3:51 AM — Dec 1 3:50 AM, Santiago de Cuba, Weather by CustomWeather, © 2015

Note: Actual official high and low records may vary slightly from our data, if they occured in-between our weather recording intervals... More about our weather records


Santiago de Cuba weather history for previous 24 hours

Time TempWeatherWind HumidityBarometerVisibility
3:50 AM
Tue, Dec 1
73 °FPassing clouds.6 mph83%29.83 "Hg6 mi
2:50 AM73 °FPassing clouds.5 mph83%29.86 "Hg6 mi
1:50 AM75 °FPassing clouds.6 mph78%29.86 "Hg6 mi
12:50 AM75 °FPassing clouds.5 mph78%29.89 "Hg6 mi
11:51 PM
Mon, Nov 30
75 °FPassing clouds.6 mph78%29.89 "Hg6 mi
10:51 PM75 °FPassing clouds.5 mph78%29.92 "Hg6 mi
9:50 PM77 °FPassing clouds.5 mph74%29.92 "Hg6 mi
8:52 PM77 °FPassing clouds.5 mph74%29.92 "Hg6 mi
7:50 PM77 °FPassing clouds.6 mph79%29.89 "Hg6 mi
6:51 PM79 °FPassing clouds.5 mph74%29.89 "Hg6 mi
5:50 PM81 °FPassing clouds.2 mph74%29.86 "Hg6 mi
4:50 PM82 °FScattered clouds.9 mph70%29.83 "Hg6 mi
3:52 PM84 °FScattered clouds.9 mph62%29.83 "HgN/A
2:51 PM84 °FScattered clouds.8 mph58%29.83 "HgN/A
1:51 PM84 °FScattered clouds.10 mph55%29.83 "HgN/A
12:50 PM84 °FScattered clouds.7 mph51%29.86 "HgN/A
11:50 AM86 °FScattered clouds.3 mph49%29.92 "HgN/A
10:50 AM82 °FScattered clouds.6 mph58%29.92 "HgN/A
9:51 AM79 °FPartly sunny.8 mph65%29.95 "Hg6 mi
8:51 AM75 °FPartly sunny.7 mph78%29.95 "Hg6 mi
7:50 AM75 °FScattered clouds.8 mph78%29.92 "HgN/A
6:50 AM72 °FScattered clouds.7 mph88%29.92 "HgN/A
5:51 AM72 °FPassing clouds.7 mph88%29.89 "Hg6 mi
Weather by CustomWeather, © 2015

See weather overviewHow to use our weather pages